[[{"header":{"parameterUnit":"m.s-1","parameterCategory":1,"la1":30.2991,"la2":30.254,"lo1":-89.0895,"lo2":-89.0444,"dx":0.0017,"dy":0.0017,"nx":28,"ny":28,"refTime":"2022-11-16T09:00:00:Z","depth":0,"parameterNumber":2,"parameterNumberName":"U-component_of_WINDS"},"data":[0,0,0,0,0,0,0,0,0,0,0,0,0,0,0,0,0,0,0,0,0,0,0,0,0,0,0,0,0,0,0,0,0,0,0,0,0,0,0,0,0,0,0,0,0,0,0,0,0,0,0,0,0,0,0,0,0,0,0.4885,0.4884,0,0.4858,0.4858,0.4858,0.4852,0.4852,0.4852,0.4852,0.4824,0.4823,0.4822,0,0,0,0,0,0,0,0,0,0,0,0,0,0.493,0.4929,0.4885,0.4884,0.4884,0.4858,0.4858,0.4858,0.4852,0.4852,0.4852,0.4852,0.4825,0.4823,0.4822,0,0,0,0,0,0,0,0,0,0,0,0,0,0.4907,0.4928,0.4885,0.4878,0.4877,0.4858,0.4858,0.4857,0.4852,0.4852,0.4852,0.4852,0.4825,0.4824,0.4822,0.4808,0,0,0.4818,0.4817,0,0,0,0,0,0,0,0,0.4909,0.4906,0.4879,0.4878,0.4877,0.4859,0.4863,0.4841,0.4852,0.4861,0.4852,0.4853,0.4835,0.4833,0.4828,0.4807,0.4805,0.4818,0.4817,0.4816,0.4816,0,0,0,0,0,0,0,0.491,0.4907,0.4874,0.4879,0.4878,0.4876,0.4873,0.4859,0.4847,0.486,0.486,0.4857,0.4835,0.4829,0.4827,0.4805,0.4818,0.4817,0.4816,0.4815,0.4772,0.4772,0,0,0,0,0,0,0.4913,0.4908,0.4875,0.4873,0.4894,0.4875,0.4872,0.4864,0.4847,0.4845,0.4857,0.4857,0.4831,0.4828,0.4826,0.4808,0.4816,0.4815,0.4814,0.4772,0.4772,0.4772,0,0,0,0,0,0,0.4914,0.491,0.4876,0.4891,0.4886,0.4874,0.4866,0.4864,0.4858,0.4844,0.4842,0.4853,0.4831,0.4828,0.4813,0.4807,0.4815,0.4813,0.4773,0.4772,0.4772,0.4773,0,0,0,0,0,0,0.4915,0.491,0.4905,0.4891,0.4885,0.4863,0.4865,0.4863,0.4855,0.4855,0.484,0.4838,0.4831,0.4815,0.4811,0.4805,0.4812,0.4773,0.4773,0.4772,0.4773,0.4773,0.4772,0,0,0,0,0,0.4917,0.4906,0.4905,0.4901,0.4878,0.4863,0.486,0.4853,0.4855,0.4849,0.4841,0.4838,0.4809,0.4813,0.4809,0.4803,0.4773,0.4773,0.4772,0.4774,0.4773,0.4772,0,0,0,0,0,0,0.4919,0.4904,0.4902,0.4886,0.4876,0.4862,0.4855,0.4852,0.4841,0.4841,0.4832,0.4829,0.4815,0.4807,0.4813,0.4789,0.4791,0.479,0.4794,0.4793,0.4792,0.4794,0.4811,0,0,0,0,0,0.4918,0.4907,0.4894,0.4881,0.4876,0.4867,0.486,0.4855,0.4844,0.484,0.483,0.4819,0.4808,0.48,0.4788,0.4773,0.477,0.4767,0.4766,0.4765,0.4764,0.4756,0.4754,0.4769,0.4769,0.4769,0,0,0.4915,0.4905,0.4899,0.4882,0.4873,0.4862,0.4863,0.4851,0.4843,0.4838,0.4823,0.4816,0.4803,0.4788,0.4781,0.4782,0.4759,0.4765,0.4764,0.4763,0.4755,0.4753,0.4752,0.4769,0.4769,0.4769,0,0,0.4904,0.4896,0.4884,0.4876,0.4864,0.4857,0.4855,0.4841,0.4836,0.4822,0.4818,0.4808,0.4788,0.4779,0.4772,0.476,0.4757,0.4756,0.4752,0.4744,0.4743,0.4742,0.4737,0.4736,0.4755,0.4755,0.4755,0,0.4902,0.4885,0.4878,0.4867,0.486,0.4856,0.4844,0.4836,0.4821,0.4816,0.4817,0.4793,0.4784,0.4767,0.4764,0.4758,0.4755,0.4757,0.4744,0.4743,0.4742,0.4737,0.4735,0.4755,0.4755,0.4755,0.4755,0,0.4883,0.4871,0.4864,0.4849,0.4841,0.483,0.4822,0.4814,0.4811,0.4805,0.479,0.478,0.4766,0.4762,0.4758,0.4745,0.4746,0.4746,0.4748,0.474,0.4736,0.4734,0.4755,0.4755,0.4755,0.4755,0,0,0.4871,0.4854,0.4852,0.4845,0.4832,0.4823,0.4812,0.4799,0.4793,0.4783,0.4773,0.4757,0.4757,0.4749,0.4745,0.4738,0.4729,0.4738,0.4738,0.4737,0.4713,0.4713,0.4711,0.4727,0.4727,0.4727,0.4714,0,0.4858,0.4838,0.4832,0.4815,0.4805,0.4802,0.4792,0.4783,0.4777,0.4767,0.4761,0.4749,0.475,0.4746,0.4739,0.4731,0.4724,0.4732,0.4718,0.4717,0.472,0.4709,0.4708,0.4697,0.4712,0.4712,0.4712,0,0.484,0.483,0.4812,0.4801,0.4796,0.4788,0.4776,0.4767,0.4757,0.4753,0.4745,0.4741,0.473,0.4733,0.4717,0.4723,0.4717,0.4713,0.4712,0.471,0.4714,0.4706,0.4693,0.4691,0.4709,0.4709,0.471,0,0.4833,0.4815,0.4802,0.4797,0.4784,0.4778,0.4772,0.4762,0.4755,0.4745,0.4741,0.4729,0.4723,0.4715,0.4708,0.4711,0.4693,0.4696,0.4689,0.4689,0.4684,0.4685,0.467,0.4682,0.4682,0.4682,0.4682,0,0.4819,0.4808,0.4799,0.4791,0.4779,0.4773,0.4761,0.4755,0.4747,0.4738,0.4734,0.4726,0.4718,0.4709,0.4704,0.4691,0.4688,0.4685,0.4684,0.4685,0.4685,0.468,0.4681,0.4681,0.4681,0.4681,0.4682,0,0.4809,0.4802,0.4788,0.4777,0.4774,0.4766,0.4756,0.4748,0.4743,0.4731,0.4728,0.472,0.4709,0.4702,0.4687,0.4684,0.467,0.4669,0.4674,0.4673,0.4667,0.4667,0.4648,0.4645,0.4659,0.4659,0.4659,0,0.48,0.4791,0.478,0.4773,0.4768,0.4758,0.4751,0.4745,0.4738,0.4727,0.4721,0.4709,0.47,0.4682,0.4675,0.4664,0.4663,0.4657,0.4661,0.4663,0.4662,0.4663,0.4662,0.4656,0.4655,0.4655,0.4655,0,0.4784,0.4782,0.4772,0.4762,0.4754,0.4746,0.4737,0.4732,0.4725,0.4718,0.4707,0.4699,0.4685,0.4674,0.4663,0.4657,0.4655,0.4654,0.4652,0.4653,0.4656,0.4654,0.4671,0.4654,0.4655,0.4655,0.4655,0.4655,0.4774,0.4767,0.4758,0.4747,0.4741,0.4733,0.4725,0.472,0.471,0.4698,0.4696,0.4684,0.4675,0.466,0.4654,0.4645,0.4646,0.4643,0.4642,0.4641,0.4641,0.4658,0.4643,0.4643,0.4643,0.4643,0.4643,0,0.4758,0.4753,0.4743,0.4732,0.4724,0.4724,0.4715,0.4708,0.4698,0.469,0.4681,0.4669,0.4658,0.465,0.464,0.4634,0.4633,0.4631,0.4631,0.463,0.4641,0.4643,0.4632,0.4632,0.4632,0.4632,0.4632,0.4632,0.4749,0.4737,0.4733,0.4718,0.4712,0.4701,0.4696,0.4689,0.4683,0.4669,0.4661,0.4656,0.4648,0.4637,0.4628,0.4626,0.4622,0.462,0.4618,0.4628,0.4629,0.463,0.4633,0.462,0.462,0.4608,0.4608,0.4608]},{"header":{"parameterUnit":"m.s-1","parameterCategory":1,"la1":30.2991,"la2":30.254,"lo1":-89.0895,"lo2":-89.0444,"dx":0.0017,"dy":0.0017,"nx":28,"ny":28,"refTime":"2022-11-16T09:00:00:Z","depth":0,"parameterNumber":3,"parameterNumberName":"V-component_of_WINDS"},"data":[0,0,0,0,0,0,0,0,0,0,0,0,0,0,0,0,0,0,0,0,0,0,0,0,0,0,0,0,0,0,0,0,0,0,0,0,0,0,0,0,0,0,0,0,0,0,0,0,0,0,0,0,0,0,0,0,0,0,-6.0968,-6.0969,0,-6.1043,-6.1044,-6.1044,-6.101,-6.1008,-6.1006,-6.1004,-6.1076,-6.1079,-6.1083,0,0,0,0,0,0,0,0,0,0,0,0,0,-6.0792,-6.0795,-6.0968,-6.0969,-6.097,-6.1043,-6.1044,-6.1045,-6.101,-6.1008,-6.1006,-6.1004,-6.1074,-6.1079,-6.1083,0,0,0,0,0,0,0,0,0,0,0,0,0,-6.0867,-6.0796,-6.0968,-6.0962,-6.0962,-6.1042,-6.1044,-6.1045,-6.1011,-6.1008,-6.1005,-6.1002,-6.1073,-6.1078,-6.1084,-6.1173,0,0,-6.11,-6.1103,0,0,0,0,0,0,0,0,-6.0863,-6.0874,-6.0962,-6.0962,-6.0963,-6.1014,-6.1007,-6.1088,-6.1011,-6.0992,-6.1004,-6.1001,-6.1057,-6.1064,-6.1084,-6.1176,-6.1179,-6.1101,-6.1104,-6.1106,-6.1108,0,0,0,0,0,0,0,-6.0858,-6.087,-6.0997,-6.0963,-6.0964,-6.0954,-6.0961,-6.1022,-6.1039,-6.0993,-6.0991,-6.1001,-6.1057,-6.1078,-6.1085,-6.118,-6.1101,-6.1105,-6.1109,-6.1111,-6.1351,-6.1354,0,0,0,0,0,0,-6.0853,-6.0866,-6.0995,-6.1,-6.0905,-6.0959,-6.0968,-6.1,-6.1038,-6.1042,-6.1003,-6.0999,-6.107,-6.1079,-6.1087,-6.1196,-6.1106,-6.1111,-6.1115,-6.1348,-6.1352,-6.1356,0,0,0,0,0,0,-6.085,-6.0865,-6.0992,-6.0932,-6.0948,-6.0965,-6.1002,-6.1003,-6.1025,-6.1046,-6.1048,-6.1023,-6.1069,-6.108,-6.1153,-6.1198,-6.1114,-6.1119,-6.1345,-6.135,-6.1354,-6.1412,0,0,0,0,0,0,-6.0845,-6.0864,-6.0899,-6.0934,-6.0951,-6.1057,-6.1005,-6.1007,-6.1035,-6.103,-6.1065,-6.1067,-6.1067,-6.1145,-6.1158,-6.1204,-6.1123,-6.1341,-6.1347,-6.1352,-6.1406,-6.1418,-6.1429,0,0,0,0,0,-6.0839,-6.0911,-6.0901,-6.0917,-6.0996,-6.106,-6.107,-6.107,-6.1039,-6.1074,-6.1087,-6.1066,-6.1191,-6.1153,-6.1167,-6.1215,-6.1338,-6.1345,-6.1352,-6.1401,-6.1416,-6.1428,0,0,0,0,0,0,-6.0879,-6.0915,-6.0905,-6.0991,-6.1023,-6.1054,-6.1098,-6.1085,-6.1125,-6.1119,-6.1115,-6.1123,-6.1199,-6.1214,-6.1171,-6.1304,-6.1259,-6.127,-6.1292,-6.1306,-6.1317,-6.1312,-6.1128,0,0,0,0,0,-6.0899,-6.095,-6.0978,-6.1051,-6.1068,-6.108,-6.1108,-6.1106,-6.1138,-6.1151,-6.117,-6.1201,-6.1247,-6.1277,-6.132,-6.1408,-6.1415,-6.1448,-6.146,-6.1469,-6.1478,-6.1526,-6.1541,-6.1379,-6.1379,-6.1378,0,0,-6.0938,-6.0964,-6.0996,-6.106,-6.1084,-6.1136,-6.1092,-6.1148,-6.1186,-6.1159,-6.123,-6.1245,-6.1279,-6.136,-6.1397,-6.1375,-6.1524,-6.1478,-6.1485,-6.1489,-6.1535,-6.155,-6.1564,-6.1383,-6.1383,-6.1382,0,0,-6.1037,-6.1062,-6.1127,-6.1153,-6.1192,-6.12,-6.1215,-6.1249,-6.1259,-6.1331,-6.1312,-6.1356,-6.1435,-6.1461,-6.1484,-6.1595,-6.1578,-6.1609,-6.1667,-6.1715,-6.1728,-6.1739,-6.1779,-6.1794,-6.1618,-6.1618,-6.1618,0,-6.1081,-6.116,-6.1161,-6.122,-6.1248,-6.1228,-6.1293,-6.1318,-6.1368,-6.1388,-6.1363,-6.1463,-6.1484,-6.1572,-6.16,-6.1619,-6.1636,-6.1605,-6.1726,-6.1737,-6.1748,-6.1786,-6.1801,-6.1622,-6.1621,-6.1621,-6.1621,0,-6.1213,-6.1268,-6.1315,-6.1367,-6.14,-6.1462,-6.1471,-6.1505,-6.15,-6.151,-6.1583,-6.1609,-6.1658,-6.1678,-6.1673,-6.1766,-6.1751,-6.1726,-6.1681,-6.1767,-6.1803,-6.1818,-6.1627,-6.1626,-6.1625,-6.1624,0,0,-6.1338,-6.1392,-6.1409,-6.1433,-6.1475,-6.1517,-6.1577,-6.1627,-6.1657,-6.1692,-6.1742,-6.1811,-6.1789,-6.1816,-6.1813,-6.1855,-6.1942,-6.1825,-6.1825,-6.1846,-6.2047,-6.2066,-6.2083,-6.1931,-6.1933,-6.1936,-6.2044,0,-6.1441,-6.1549,-6.1553,-6.1651,-6.1702,-6.1685,-6.1737,-6.1768,-6.178,-6.1824,-6.1836,-6.1885,-6.1852,-6.1868,-6.1909,-6.1923,-6.1982,-6.1915,-6.1977,-6.1979,-6.197,-6.2101,-6.2121,-6.2222,-6.2058,-6.2061,-6.2062,0,-6.1575,-6.1618,-6.1723,-6.1759,-6.1781,-6.1828,-6.1875,-6.1918,-6.1952,-6.1958,-6.1989,-6.198,-6.2041,-6.1995,-6.2078,-6.2033,-6.2058,-6.2069,-6.2073,-6.2079,-6.2026,-6.2111,-6.2255,-6.227,-6.2084,-6.2082,-6.2081,0,-6.1658,-6.1741,-6.1815,-6.1836,-6.188,-6.1914,-6.1933,-6.1966,-6.1996,-6.2036,-6.2056,-6.2102,-6.2127,-6.2163,-6.2167,-6.2132,-6.2251,-6.2204,-6.2257,-6.2257,-6.2283,-6.2281,-6.2433,-6.2299,-6.2298,-6.2298,-6.2298,0,-6.1773,-6.1837,-6.1853,-6.1898,-6.197,-6.1973,-6.2044,-6.206,-6.2089,-6.2137,-6.2123,-6.2168,-6.217,-6.2216,-6.2219,-6.2288,-6.2299,-6.2305,-6.2305,-6.2307,-6.2306,-6.2323,-6.2317,-6.2302,-6.2301,-6.23,-6.23,0,-6.1877,-6.189,-6.1969,-6.2006,-6.2016,-6.2068,-6.2098,-6.2141,-6.2152,-6.2212,-6.2227,-6.2243,-6.2296,-6.2304,-6.2365,-6.2367,-6.2451,-6.2443,-6.244,-6.2439,-6.2492,-6.2487,-6.266,-6.2683,-6.2533,-6.2535,-6.2536,0,-6.1949,-6.1999,-6.2042,-6.2074,-6.2096,-6.2148,-6.218,-6.2184,-6.2217,-6.2262,-6.2299,-6.2351,-6.2393,-6.2478,-6.2495,-6.2542,-6.2536,-6.2593,-6.2543,-6.2543,-6.2538,-6.2535,-6.254,-6.2603,-6.2605,-6.2606,-6.2607,0,-6.2078,-6.2082,-6.213,-6.218,-6.2219,-6.2258,-6.2295,-6.2322,-6.233,-6.2368,-6.2424,-6.2457,-6.2521,-6.2573,-6.262,-6.2638,-6.2624,-6.2623,-6.2638,-6.264,-6.2637,-6.264,-6.2467,-6.2619,-6.2618,-6.2617,-6.2616,-6.2616,-6.2169,-6.2213,-6.2251,-6.2304,-6.2333,-6.2368,-6.2411,-6.2429,-6.2476,-6.253,-6.2529,-6.259,-6.2624,-6.2686,-6.2708,-6.2754,-6.2735,-6.2757,-6.2762,-6.2768,-6.2773,-6.2629,-6.2763,-6.2762,-6.2762,-6.2762,-6.2762,0,-6.2297,-6.2321,-6.237,-6.2424,-6.2466,-6.2452,-6.2492,-6.2528,-6.2583,-6.2616,-6.2659,-6.2723,-6.2773,-6.2795,-6.2844,-6.2878,-6.2873,-6.2891,-6.2888,-6.2893,-6.2787,-6.277,-6.2894,-6.2894,-6.2894,-6.2894,-6.2894,-6.2894,-6.2369,-6.2443,-6.2453,-6.2541,-6.2564,-6.2625,-6.265,-6.2682,-6.271,-6.2783,-6.2826,-6.284,-6.2869,-6.2921,-6.2966,-6.2971,-6.299,-6.3011,-6.3013,-6.2914,-6.29,-6.2888,-6.2871,-6.3015,-6.3015,-6.3116,-6.3117,-6.3117]}]]